FW0837 Weather Reports


Display with metric or nautical units.
time (UTC)temp
F
wind
direction
speed
MPH
gust
MPH
rain 1hr
in
rain 24hr
in
rain mn
in
humidity
%
barometer
mb
20260509202524 47 96 3.0 6.0 0.01 0.18 0.18 90 1013.5
20260509202024 47 93 2.0 6.0 0.01 0.18 0.18 90 1013.6
20260509201526 47 66 1.0 9.0 0.01 0.18 0.18 90 1013.7
20260509201026 47 83 3.0 9.0 0.00 0.17 0.17 90 1013.8
20260509200523 47 73 1.0 5.0 0.00 0.17 0.17 90 1013.7
20260509200023 47 56 2.0 5.0 0.00 0.17 0.17 90 1013.7
20260509195523 47 56 2.0 5.0 0.00 0.17 0.17 91 1013.5
20260509195022 47 54 2.0 9.0 0.00 0.17 0.17 91 1013.3
20260509194525 47 66 4.0 9.0 0.00 0.17 0.17 91 1013.2
20260509194023 48 92 3.0 8.0 0.00 0.17 0.17 91 1013.1
20260509193522 48 57 2.0 8.0 0.00 0.17 0.17 91 1012.8
20260509193022 48 54 2.0 9.0 0.00 0.17 0.17 91 1012.7
20260509192520 48 41 2.0 9.0 0.00 0.17 0.17 90 1013.5
20260509192021 48 64 4.0 8.0 0.00 0.17 0.17 91 1013.3
20260509191521 48 62 2.0 10.0 0.00 0.17 0.17 91 1013.3
20260509191023 47 71 3.0 10.0 0.01 0.17 0.17 91 1013.0
20260509190519 48 51 3.0 10.0 0.01 0.17 0.17 91 1013.1
20260509190018 48 84 2.0 8.0 0.02 0.17 0.17 90 1013.6
20260509185522 48 87 2.0 8.0 0.02 0.17 0.17 91 1013.6
20260509185018 48 39 3.0 10.0 0.02 0.17 0.17 91 1013.7
20260509184524 47 97 5.0 10.0 0.02 0.17 0.17 91 1013.7
20260509184015 47 83 3.0 6.0 0.02 0.17 0.17 91 1013.9
20260509183515 47 68 2.0 4.0 0.03 0.17 0.17 90 1014.2
20260509183015 47 70 0.0 5.0 0.03 0.17 0.17 90 1014.1
20260509182514 47 70 1.0 5.0 0.04 0.17 0.17 91 1014.1
20260509182013 47 64 3.0 5.0 0.04 0.17 0.17 90 1014.1
20260509181513 47 62 0.0 4.0 0.04 0.17 0.17 90 1014.3
20260509181013 47 62 0.0 5.0 0.03 0.16 0.16 90 1014.2
20260509180513 47 64 0.0 5.0 0.04 0.16 0.16 90 1014.4
20260509180013 47 63 0.0 4.0 0.03 0.15 0.15 90 1014.4
20260509175513 47 63 0.0 5.0 0.04 0.15 0.15 90 1014.2
20260509175014 47 62 1.0 5.0 0.04 0.15 0.15 90 1014.3
20260509174513 47 53 2.0 5.0 0.05 0.15 0.15 90 1014.2
20260509174015 47 52 0.0 3.0 0.06 0.15 0.15 90 1014.4
20260509173511 47 52 1.0 4.0 0.05 0.14 0.14 90 1014.6
20260509173035 47 52 1.0 5.0 0.04 0.13 0.13 89 1014.9
20260509172511 47 52 0.0 5.0 0.04 0.13 0.13 89 1014.8
20260509172011 47 64 1.0 4.0 0.05 0.13 0.13 89 1014.8
20260509171522 47 62 0.0 4.0 0.05 0.13 0.13 90 1014.8
20260509171010 47 62 1.0 4.0 0.06 0.13 0.13 90 1014.9
20260509170510 47 62 0.0 3.0 0.05 0.12 0.12 89 1015.0
20260509170014 47 63 0.0 3.0 0.05 0.12 0.12 89 1015.0
20260509165511 46 62 0.0 4.0 0.05 0.11 0.11 89 1014.9
20260509165009 46 63 2.0 4.0 0.04 0.10 0.10 89 1015.0
20260509164512 46 63 0.0 5.0 0.05 0.10 0.10 89 1014.9
20260509164010 47 62 1.0 5.0 0.04 0.09 0.09 89 1014.8
20260509163510 47 36 0.0 3.0 0.04 0.09 0.09 88 1014.7
20260509163016 47 36 1.0 4.0 0.05 0.09 0.09 88 1014.7
20260509162509 47 35 2.0 4.0 0.04 0.08 0.08 88 1014.5
20260509162009 47 72 0.0 4.0 0.04 0.08 0.08 88 1014.7
20260509161508 47 73 2.0 4.0 0.04 0.07 0.07 88 1014.8
20260509161010 47 110 0.0 2.0 0.04 0.07 0.07 88 1014.8
20260509160508 47 110 0.0 2.0 0.04 0.07 0.07 88 1015.0
20260509160014 47 110 0.0 4.0 0.03 0.06 0.06 87 1015.2
20260509155507 47 110 0.0 4.0 0.03 0.06 0.06 87 1015.2
20260509155010 47 110 0.0 3.0 0.03 0.06 0.06 87 1015.4
20260509154507 47 110 0.0 3.0 0.02 0.05 0.05 86 1015.4
20260509154007 47 111 0.0 1.0 0.03 0.05 0.05 86 1015.5
20260509153507 47 111 0.0 2.0 0.03 0.05 0.05 86 1015.5
20260509153008 47 111 0.0 2.0 0.02 0.04 0.04 86 1015.5
20260509152506 47 111 0.0 2.0 0.02 0.04 0.04 86 1015.5
20260509152006 47 111 0.0 2.0 0.02 0.04 0.04 85 1015.5
20260509151506 47 111 0.0 4.0 0.02 0.03 0.03 85 1015.6
20260509151008 47 111 1.0 4.0 0.02 0.03 0.03 85 1015.6
20260509150506 47 136 1.0 3.0 0.02 0.03 0.03 85 1015.7
20260509150009 48 137 0.0 2.0 0.03 0.03 0.03 85 1015.8
20260509145507 48 136 0.0 2.0 0.03 0.03 0.03 84 1015.8
20260509145006 48 136 0.0 3.0 0.03 0.03 0.03 84 1015.8
20260509144505 48 135 0.0 2.0 0.03 0.03 0.03 84 1015.9
20260509144005 48 136 0.0 2.0 0.02 0.02 0.02 84 1015.9
20260509143506 48 136 0.0 2.0 0.02 0.02 0.02 83 1016.0
20260509143006 48 136 0.0 2.0 0.02 0.02 0.02 82 1016.0
20260509142504 48 136 0.0 3.0 0.02 0.02 0.02 81 1015.9
20260509142004 49 136 0.0 3.0 0.02 0.02 0.02 80 1015.8
20260509141503 49 136 1.0 3.0 0.01 0.01 0.01 79 1015.8
20260509141003 49 135 0.0 1.0 0.01 0.01 0.01 78 1015.7
20260509140504 49 135 0.0 2.0 0.01 0.01 0.01 77 1015.7
20260509140003 49 135 0.0 2.0 0.00 0.00 0.00 75 1015.5
20260509135503 50 135 0.0 3.0 0.00 0.00 0.00 76 1015.4
20260509135003 49 135 0.0 3.0 0.00 0.00 0.00 74 1015.5
20260509134502 50 137 0.0 2.0 0.00 0.00 0.00 73 1015.4
20260509134005 50 137 0.0 2.0 0.00 0.00 0.00 72 1015.3
20260509133503 50 137 0.0 2.0 0.00 0.00 0.00 72 1015.4
20260509133002 50 137 0.0 4.0 0.00 0.00 0.00 71 1015.4
20260509132502 50 137 2.0 4.0 0.00 0.00 0.00 69 1015.3
20260509132001 51 174 0.0 3.0 0.00 0.00 0.00 67 1015.3
20260509131501 51 174 0.0 2.0 0.00 0.00 0.00 67 1015.4
20260509131001 51 174 0.0 2.0 0.00 0.00 0.00 66 1015.4
20260509130600 51 174 0.0 3.0 0.00 0.00 0.00 66 1015.4
20260509130127 50 177 0.0 3.0 0.00 0.00 0.00 65 1015.3
20260509125558 50 177 0.0 4.0 0.00 0.00 0.00 65 1015.4
20260509125057 50 175 1.0 4.0 0.00 0.00 0.00 65 1015.5
20260509124556 50 172 1.0 5.0 0.00 0.00 0.00 67 1015.5
20260509124055 50 211 1.0 3.0 0.00 0.00 0.00 70 1015.5
20260509123553 49 211 0.0 2.0 0.00 0.00 0.00 72 1015.6
20260509123118 49 211 0.0 2.0 0.00 0.00 0.00 73 1015.6
20260509122551 49 210 0.0 2.0 0.00 0.00 0.00 76 1015.5
20260509122051 49 210 0.0 1.0 0.00 0.00 0.00 78 1015.4
20260509121549 48 211 0.0 1.0 0.00 0.00 0.00 78 1015.3
20260509121049 48 211 0.0 0.0 0.00 0.00 0.00 79 1015.2
20260509120548 47 211 0.0 1.0 0.00 0.00 0.00 79 1015.2
20260509120051 47 210 0.0 1.0 0.00 0.00 0.00 80 1015.4
20260509115547 47 211 0.0 0.0 0.00 0.00 0.00 81 1015.3
20260509115044 46 210 0.0 0.0 0.00 0.00 0.00 82 1015.3
20260509114611 46 211 0.0 0.0 0.00 0.00 0.00 82 1015.4
20260509114042 45 210 0.0 0.0 0.00 0.00 0.00 83 1015.4
20260509113540 44 210 0.0 1.0 0.00 0.00 0.00 85 1015.5
20260509113039 44 211 0.0 2.0 0.00 0.00 0.00 86 1015.6
20260509112540 44 211 0.0 0.0 0.00 0.00 0.00 87 1015.7
20260509112037 43 211 0.0 0.0 0.00 0.00 0.00 88 1015.7
20260509111536 43 211 0.0 0.0 0.00 0.00 0.00 88 1015.7
20260509111035 43 210 0.0 0.0 0.00 0.00 0.00 88 1015.6
20260509110533 42 210 0.0 0.0 0.00 0.00 0.00 89 1015.6
20260509110033 41 211 0.0 0.0 0.00 0.00 0.00 89 1015.6
20260509105532 41 211 0.0 0.0 0.00 0.00 0.00 89 1015.6
20260509105031 41 211 0.0 0.0 0.00 0.00 0.00 89 1015.7
20260509104530 40 211 0.0 0.0 0.00 0.00 0.00 89 1015.6
20260509104028 40 211 0.0 1.0 0.00 0.00 0.00 89 1015.6
20260509103528 39 210 0.0 1.0 0.00 0.00 0.00 89 1015.7
20260509103028 39 211 0.0 1.0 0.00 0.00 0.00 89 1015.8
20260509102527 39 210 0.0 1.0 0.00 0.00 0.00 89 1015.7
20260509102026 39 211 0.0 1.0 0.00 0.00 0.00 89 1015.6
20260509101535 38 211 0.0 0.0 0.00 0.00 0.00 89 1015.4
20260509101027 37 211 0.0 0.0 0.00 0.00 0.00 89 1015.4
20260509100524 37 210 0.0 0.0 0.00 0.00 0.00 89 1015.4
20260509100023 36 211 0.0 0.0 0.00 0.00 0.00 88 1015.2
20260509095523 36 210 0.0 0.0 0.00 0.00 0.00 88 1015.2
20260509095023 36 211 0.0 0.0 0.00 0.00 0.00 88 1015.1
20260509094530 35 210 0.0 0.0 0.00 0.00 0.00 88 1015.0
20260509094020 35 211 0.0 0.0 0.00 0.00 0.00 88 1014.9
20260509093519 35 211 0.0 0.0 0.00 0.00 0.00 88 1014.8
20260509093019 35 211 0.0 0.0 0.00 0.00 0.00 88 1015.0
20260509092517 35 210 0.0 0.0 0.00 0.00 0.00 87 1015.0
20260509092017 35 212 0.0 0.0 0.00 0.00 0.00 87 1014.9
20260509091517 35 210 0.0 0.0 0.00 0.00 0.00 87 1014.8
20260509091017 35 211 0.0 0.0 0.00 0.00 0.00 88 1015.0
20260509090518 35 210 0.0 1.0 0.00 0.00 0.00 87 1014.9
20260509090015 35 211 0.0 1.0 0.00 0.00 0.00 87 1014.7
20260509085514 35 211 0.0 0.0 0.00 0.00 0.00 87 1014.6
20260509085014 36 210 0.0 0.0 0.00 0.00 0.00 87 1014.6
20260509084513 36 211 0.0 0.0 0.00 0.00 0.00 87 1014.7
20260509084016 36 211 0.0 0.0 0.00 0.00 0.00 87 1014.6
20260509083511 36 211 0.0 0.0 0.00 0.00 0.00 87 1014.6
20260509083011 36 211 0.0 0.0 0.00 0.00 0.00 87 1014.6
20260509082514 36 210 0.0 0.0 0.00 0.00 0.00 87 1014.5
20260509082010 36 210 0.0 0.0 0.00 0.00 0.00 87 1014.5
20260509081510 36 211 0.0 0.0 0.00 0.00 0.00 87 1014.5
20260509081009 36 211 0.0 0.0 0.00 0.00 0.00 86 1014.5
20260509080509 36 210 0.0 0.0 0.00 0.00 0.00 86 1014.5
20260509080008 36 210 0.0 0.0 0.00 0.00 0.00 86 1014.6
20260509075510 36 210 0.0 0.0 0.00 0.00 0.00 86 1014.4
20260509075007 37 211 0.0 0.0 0.00 0.00 0.00 86 1014.4
20260509074505 37 211 0.0 1.0 0.00 0.00 0.00 86 1014.4
20260509074006 37 211 0.0 1.0 0.00 0.00 0.00 86 1014.4
20260509073504 37 211 0.0 0.0 0.00 0.00 0.00 86 1014.3
20260509073008 37 211 0.0 0.0 0.00 0.00 0.00 86 1014.2
20260509072504 37 210 0.0 0.0 0.00 0.00 0.00 86 1014.3
20260509072006 37 210 0.0 0.0 0.00 0.00 0.00 85 1014.3
20260509071504 37 211 0.0 0.0 0.00 0.00 0.00 85 1014.3
20260509071009 37 211 0.0 0.0 0.00 0.00 0.00 85 1014.2
20260509070504 37 211 0.0 0.0 0.00 0.00 0.00 85 1014.2
20260509070004 37 211 0.0 0.0 0.00 0.00 0.00 85 1014.3
20260509065503 37 211 0.0 0.0 0.00 0.00 0.00 85 1014.2
20260509065003 37 211 0.0 0.0 0.00 0.00 0.00 85 1014.4
20260509064503 37 211 0.0 0.0 0.00 0.00 0.00 85 1014.4
20260509064005 37 211 0.0 1.0 0.00 0.00 0.00 85 1014.4
20260509063500 37 211 0.0 1.0 0.00 0.00 0.00 84 1014.5
20260509063100 37 211 0.0 0.0 0.00 0.00 0.00 84 1014.4
20260509062604 37 211 0.0 2.0 0.00 0.00 0.00 84 1014.4
20260509062059 38 211 0.0 2.0 0.00 0.00 0.00 84 1014.5
20260509061607 38 210 0.0 2.0 0.00 0.00 0.00 84 1014.5
20260509061057 38 211 0.0 2.0 0.00 0.00 0.00 84 1014.4
20260509060556 38 211 0.0 2.0 0.00 0.00 0.00 84 1014.4
20260509060056 38 211 0.0 0.0 0.00 0.00 0.00 84 1014.3
20260509055555 38 210 0.0 0.0 0.00 0.00 0.00 83 1014.2
20260509055057 38 210 0.0 0.0 0.00 0.00 0.00 83 1014.3
20260509054609 38 210 0.0 0.0 0.00 0.00 0.00 82 1014.3
20260509054053 38 211 0.0 0.0 0.00 0.00 0.00 82 1014.2
20260509053551 39 211 0.0 0.0 0.00 0.00 0.00 82 1014.2
20260509053056 39 211 0.0 0.0 0.00 0.00 0.00 82 1014.2
20260509052549 39 211 0.0 0.0 0.00 0.00 0.00 82 1014.2
20260509052050 39 211 0.0 0.0 0.00 0.00 0.00 82 1014.1
20260509051549 39 210 0.0 0.0 0.00 0.00 0.00 81 1014.1
20260509051048 40 210 0.0 0.0 0.00 0.00 0.00 81 1014.0
20260509050548 40 210 0.0 0.0 0.00 0.00 0.00 81 1014.1
20260509050046 40 210 0.0 0.0 0.00 0.00 0.00 80 1013.9
20260509045547 40 210 0.0 0.0 0.00 0.00 0.00 80 1014.0
20260509045045 40 211 0.0 2.0 0.00 0.00 0.00 79 1013.9
20260509044544 40 211 0.0 2.0 0.00 0.00 0.00 79 1014.0
20260509044044 41 210 0.0 2.0 0.00 0.00 0.00 79 1013.9
20260509043544 41 210 0.0 1.0 0.00 0.00 0.00 79 1013.9
20260509043041 41 211 0.0 1.0 0.00 0.00 0.00 78 1013.8
20260509042540 41 211 0.0 0.0 0.00 0.00 0.00 77 1013.8
20260509042040 41 211 0.0 0.0 0.00 0.00 0.00 77 1013.8
20260509041539 41 211 0.0 0.0 0.00 0.00 0.00 77 1013.7
20260509041038 41 211 0.0 0.0 0.00 0.00 0.00 77 1013.8
20260509040537 42 211 0.0 4.0 0.00 0.00 0.00 76 1013.8
20260509040042 42 211 0.0 4.0 0.00 0.00 0.00 76 1013.8
20260509035539 42 211 0.0 3.0 0.00 0.00 0.00 75 1013.8
20260509035036 42 210 0.0 0.0 0.00 0.00 0.00 75 1013.8
20260509034539 42 211 0.0 0.0 0.00 0.00 0.00 75 1013.7
20260509034035 43 211 0.0 0.0 0.00 0.00 0.00 74 1013.7
20260509033537 43 211 0.0 0.0 0.00 0.00 0.00 73 1013.7
20260509033034 43 210 0.0 0.0 0.00 0.00 0.00 73 1013.6
20260509032534 43 210 0.0 0.0 0.00 0.00 0.00 72 1013.5
20260509032033 44 211 0.0 0.0 0.00 0.00 0.00 72 1013.6
20260509031533 44 210 0.0 0.0 0.00 0.00 0.00 72 1013.6
20260509031032 44 210 0.0 0.0 0.00 0.00 0.00 71 1013.5
20260509030532 45 210 0.0 0.0 0.00 0.00 0.00 72 1013.5
20260509030034 45 211 0.0 1.0 0.00 0.00 0.00 71 1013.5
20260509025531 45 211 0.0 2.0 0.00 0.00 0.00 70 1013.5
20260509025034 45 210 0.0 2.0 0.00 0.00 0.00 69 1013.4
20260509024532 46 211 0.0 2.0 0.00 0.00 0.00 68 1013.3
20260509024032 46 211 0.0 2.0 0.00 0.00 0.00 66 1013.4
20260509023532 46 211 0.0 0.0 0.00 0.00 0.00 66 1013.4
20260509023032 47 211 0.0 2.0 0.00 0.00 0.00 65 1013.5
20260509022532 47 210 0.0 2.0 0.00 0.00 0.00 64 1013.3
20260509022029 47 210 0.0 2.0 0.00 0.00 0.00 62 1013.2
20260509021529 48 210 0.0 2.0 0.00 0.00 0.00 61 1013.1
20260509021028 48 211 0.0 3.0 0.00 0.00 0.00 60 1013.1
20260509020527 48 210 1.0 3.0 0.00 0.00 0.00 59 1012.9
20260509020027 48 211 0.0 3.0 0.00 0.00 0.00 59 1013.0
20260509015526 49 211 0.0 2.0 0.00 0.00 0.00 58 1012.8
20260509015025 49 210 0.0 3.0 0.00 0.00 0.00 57 1012.8
20260509014536 50 210 1.0 3.0 0.00 0.00 0.00 55 1012.6
20260509014024 50 211 0.0 3.0 0.00 0.00 0.00 55 1012.5
20260509013523 50 210 0.0 5.0 0.00 0.00 0.00 54 1012.6
20260509013024 50 210 2.0 6.0 0.00 0.00 0.00 53 1012.5
20260509012522 51 210 1.0 7.0 0.00 0.00 0.00 53 1012.4
20260509012022 51 223 3.0 7.0 0.00 0.00 0.00 52 1012.3
20260509011520 51 239 2.0 9.0 0.00 0.00 0.00 52 1012.2
20260509011020 51 276 4.0 9.0 0.00 0.00 0.00 51 1012.1
20260509010519 51 240 4.0 9.0 0.00 0.00 0.00 51 1012.0
20260509010018 51 280 3.0 13.0 0.00 0.00 0.00 51 1011.9
20260509005519 51 236 5.0 13.0 0.00 0.00 0.00 51 1011.8
20260509005018 51 233 4.0 9.0 0.00 0.00 0.00 51 1011.6
20260509004516 51 219 3.0 11.0 0.00 0.00 0.00 50 1011.5
20260509004016 52 247 3.0 11.0 0.00 0.00 0.00 50 1011.5
20260509003515 52 224 2.0 8.0 0.00 0.00 0.00 50 1011.4
20260509003013 52 240 3.0 8.0 0.00 0.00 0.00 49 1011.3
20260509002513 52 232 2.0 8.0 0.00 0.00 0.00 49 1011.1
20260509002012 52 231 1.0 10.0 0.00 0.00 0.00 48 1011.0
20260509001512 53 222 3.0 10.0 0.00 0.00 0.00 47 1011.0
20260509001012 53 226 3.0 11.0 0.00 0.00 0.00 46 1011.0
20260509000511 53 249 4.0 11.0 0.00 0.00 0.00 46 1010.8
20260509000010 53 233 2.0 8.0 0.00 0.00 0.00 46 1010.8
20260508235512 53 264 2.0 7.0 0.00 0.00 0.00 46 1010.7
20260508235010 54 212 4.0 7.0 0.00 0.00 0.00 45 1010.6
20260508234509 54 228 1.0 7.0 0.00 0.00 0.00 45 1010.5
20260508234011 54 266 1.0 8.0 0.00 0.00 0.00 45 1010.4
20260508233509 54 266 2.0 10.0 0.00 0.00 0.00 43 1010.3
20260508233007 55 245 2.0 10.0 0.00 0.00 0.00 43 1010.2
20260508232507 55 273 5.0 10.0 0.00 0.00 0.00 42 1010.2
20260508232007 55 247 2.0 9.0 0.00 0.00 0.00 42 1010.2
20260508231507 55 262 2.0 9.0 0.00 0.00 0.00 41 1010.1
20260508231009 56 325 4.0 10.0 0.00 0.00 0.00 41 1010.0
20260508230506 56 240 4.0 10.0 0.00 0.00 0.00 41 1010.1
20260508230007 56 239 4.0 11.0 0.00 0.00 0.00 39 1009.9
20260508225506 57 295 3.0 10.0 0.00 0.00 0.00 40 1009.9
20260508225007 57 296 1.0 8.0 0.00 0.00 0.00 40 1010.0
20260508224506 56 269 3.0 10.0 0.00 0.00 0.00 40 1009.9
20260508224005 57 236 4.0 11.0 0.00 0.00 0.00 39 1010.0
20260508223505 57 266 3.0 11.0 0.00 0.00 0.00 39 1009.9
20260508223008 57 215 2.0 14.0 0.00 0.00 0.00 38 1009.8
20260508222505 58 278 6.0 14.0 0.00 0.00 0.00 38 1009.8
20260508222008 58 249 2.0 12.0 0.00 0.00 0.00 38 1009.8
20260508221505 58 264 3.0 14.0 0.00 0.00 0.00 38 1009.7
20260508221005 58 250 3.0 14.0 0.00 0.00 0.00 37 1009.6
20260508220505 58 260 2.0 12.0 0.00 0.00 0.00 37 1009.6
20260508220018 59 239 6.0 14.0 0.00 0.00 0.00 37 1009.6
20260508215505 59 226 6.0 15.0 0.00 0.00 0.00 37 1009.5
20260508215005 59 337 7.0 15.0 0.00 0.00 0.00 36 1009.4
20260508214505 59 230 4.0 14.0 0.00 0.00 0.00 37 1009.4
20260508214005 59 266 2.0 12.0 0.00 0.00 0.00 37 1009.3
20260508213503 60 240 5.0 13.0 0.00 0.00 0.00 35 1009.3
20260508213004 60 233 7.0 15.0 0.00 0.00 0.00 36 1009.4
20260508212504 60 226 6.0 15.0 0.00 0.00 0.00 36 1009.3
20260508212004 59 218 5.0 11.0 0.00 0.00 0.00 36 1009.3
20260508211503 58 291 4.0 11.0 0.00 0.00 0.00 36 1009.3
20260508211002 59 254 6.0 12.0 0.00 0.00 0.00 37 1009.4
20260508210601 59 285 6.0 12.0 0.00 0.00 0.00 36 1009.3
20260508210100 61 237 3.0 11.0 0.00 0.00 0.00 36 1009.2
20260508205658 61 231 2.0 9.0 0.00 0.00 0.00 37 1009.2
20260508205057 59 195 3.0 11.0 0.00 0.00 0.00 38 1009.0
20260508204605 58 255 6.0 11.0 0.00 0.00 0.00 36 1009.1
20260508204057 58 265 7.0 14.0 0.00 0.00 0.00 37 1009.0
20260508203554 59 237 5.0 17.0 0.00 0.00 0.00 35 1009.0
20260508203054 61 206 7.0 17.0 0.00 0.00 0.00 34 1008.9